Cavalier, ND

11:02 PM CDT on July 27, 2016 (GMT -0500)
Cavalier

Weather History for K2C8 - March, 2013

Change the Weather History Date:

Thursday, March 7, 2013

  Actual Average (KGAF) Record (KGAF)
Temperature  
Mean Temperature 12 °F -  
Max Temperature 24 °F 28 °F 54 °F (1968)
Min Temperature 0 °F 8 °F -22 °F (1955)
Degree Days  
Heating Degree Days 53    
Moisture  
Dew Point 10 °F    
Average Humidity 86    
Maximum Humidity 93    
Minimum Humidity 74    
Precipitation  
Precipitation 0.00 in - - ()
Sea Level Pressure  
Sea Level Pressure 30.23 in    
Wind  
Wind Speed 4 mph (SSE)    
Max Wind Speed 16 mph    
Max Gust Speed 20 mph    
Visibility 8 miles    
Events Fog , Snow    
Averages and records for this station are not official NWS values.
T = Trace of Precipitation, MM = Missing Value Source: NWS Daily Summary

Daily Weather History Graph

Daily Weather History Graph

Search for Another Location

Airport or City:

Trip Planner

Search our weather history database for the weather conditions in past years. The results will help you decide how hot, cold, wet, or windy it might be!

Date:

Astronomy

Mar. 07, 2013 Rise Set
Actual Time 6:59 AM CST 6:23 PM CST
Civil Twilight 6:28 AM CST 6:55 PM CST
Nautical Twilight 5:51 AM CST 7:31 PM CST
Astronomical Twilight 5:14 AM CST 8:09 PM CST
Moon 4:18 AM CST (3/7) 1:56 PM CST (3/7)
Length of Visible Light 12h 27m
Length of Day
11h 24m
Waning Crescent, 20% of the Moon is Illuminated
Mar 7
Waning Crescent
Mar 11
New
Mar 19
First Quarter
Mar 27
Full
Apr 2
Last Quarter

Hourly Weather History & Observations

Time (CST) Temp. Windchill Dew Point Humidity Pressure Visibility Wind Dir Wind Speed Gust Speed Precip Events Conditions
12:15 AM 1.4 °F - -0.4 °F 92% 30.32 in 0.5 mi Calm Calm - N/A Fog Light Freezing Fog
12:35 AM 3.2 °F -4.2 °F -0.4 °F 85% 30.32 in 0.5 mi South 3.5 mph - N/A Fog Light Freezing Fog
12:55 AM 1.4 °F - -0.4 °F 92% 30.32 in 5.0 mi Calm Calm - N/A   Clear
1:15 AM 5.0 °F - 1.4 °F 85% 30.31 in 2.0 mi Calm Calm - N/A   Clear
1:35 AM 5.0 °F - 1.4 °F 85% 30.31 in 4.0 mi Calm Calm - N/A Snow Light Snow
1:55 AM -0.4 °F - -4.0 °F 85% 30.31 in 3.0 mi Calm Calm - N/A   Clear
2:15 AM 1.4 °F - -0.4 °F 92% 30.30 in 3.0 mi Calm Calm - N/A   Clear
2:35 AM 5.0 °F - 1.4 °F 85% 30.30 in 4.0 mi Calm Calm - N/A   Clear
2:55 AM 1.4 °F - -0.4 °F 92% 30.30 in 3.0 mi Calm Calm - N/A   Clear
3:15 AM 1.4 °F - -0.4 °F 92% 30.29 in 3.0 mi Calm Calm - N/A   Clear
3:35 AM 3.2 °F - -0.4 °F 85% 30.28 in 2.0 mi Calm Calm - N/A   Clear
3:55 AM 3.2 °F - -0.4 °F 85% 30.28 in 5.0 mi Calm Calm - N/A Snow Light Snow
4:15 AM 3.2 °F - -0.4 °F 85% 30.28 in 7.0 mi Calm Calm - N/A   Clear
4:55 AM 3.2 °F - -0.4 °F 85% 30.27 in 10.0 mi Calm Calm - N/A   Clear
5:15 AM 3.2 °F -4.2 °F -0.4 °F 85% 30.27 in 10.0 mi ESE 3.5 mph - N/A   Clear
5:35 AM 3.2 °F - -0.4 °F 85% 30.27 in 10.0 mi Calm Calm - N/A Snow Light Snow
6:15 AM 3.2 °F -4.2 °F -0.4 °F 85% 30.26 in 10.0 mi SE 3.5 mph - N/A   Clear
6:35 AM 3.2 °F -4.2 °F -0.4 °F 85% 30.27 in 10.0 mi SSE 3.5 mph - N/A   Clear
6:55 AM 1.4 °F -6.2 °F -2.2 °F 85% 30.27 in 10.0 mi SSE 3.5 mph - N/A   Clear
7:15 AM -0.4 °F -10.4 °F -2.2 °F 92% 30.28 in 10.0 mi South 4.6 mph - N/A   Clear
7:35 AM 1.4 °F -8.3 °F -2.2 °F 85% 30.27 in 10.0 mi SSE 4.6 mph - N/A   Mostly Cloudy
7:55 AM 1.4 °F - -2.2 °F 85% 30.27 in 10.0 mi Calm Calm - N/A   Overcast
8:15 AM -0.4 °F -10.4 °F -2.2 °F 92% 30.27 in 10.0 mi SSE 4.6 mph - N/A   Mostly Cloudy
8:35 AM 3.2 °F -6.2 °F -0.4 °F 85% 30.27 in 10.0 mi South 4.6 mph - N/A   Scattered Clouds
8:55 AM 5.0 °F -4.1 °F 1.4 °F 85% 30.27 in 10.0 mi South 4.6 mph - N/A   Partly Cloudy
9:15 AM 5.0 °F -5.6 °F 1.4 °F 85% 30.28 in 10.0 mi South 5.8 mph - N/A   Clear
9:35 AM 6.8 °F -3.5 °F 3.2 °F 85% 30.28 in 10.0 mi South 5.8 mph - N/A   Clear
9:55 AM 8.6 °F -2.6 °F 6.8 °F 92% 30.27 in 5.0 mi SSE 6.9 mph - N/A Snow Light Snow
10:15 AM 10.4 °F 0.8 °F 8.6 °F 92% 30.27 in 10.0 mi SSE 5.8 mph - N/A   Partly Cloudy
10:35 AM 10.4 °F 0.8 °F 8.6 °F 92% 30.27 in 10.0 mi South 5.8 mph - N/A   Clear
10:55 AM 12.2 °F 1.7 °F 10.4 °F 92% 30.25 in 10.0 mi SSE 6.9 mph - N/A   Clear
11:15 AM 14.0 °F 3.9 °F 12.2 °F 93% 30.24 in 10.0 mi SE 6.9 mph - N/A   Clear
11:35 AM 15.8 °F 5.1 °F 14.0 °F 93% 30.24 in 10.0 mi SSE 8.1 mph - N/A   Clear
11:55 AM 15.8 °F 6.1 °F 14.0 °F 93% 30.23 in 10.0 mi SE 6.9 mph - N/A   Clear
12:15 PM 17.6 °F 8.2 °F 15.8 °F 93% 30.24 in 10.0 mi SE 6.9 mph - N/A   Clear
12:35 PM 17.6 °F 5.0 °F 15.8 °F 93% 30.24 in 10.0 mi SSE 11.5 mph 18.4 mph N/A   Clear
12:55 PM 19.4 °F 6.6 °F 15.8 °F 86% 30.23 in 10.0 mi SSE 12.7 mph - N/A   Clear
1:15 PM 19.4 °F 7.9 °F 15.8 °F 86% 30.22 in 10.0 mi SSE 10.4 mph - N/A   Clear
1:35 PM 21.2 °F 10.9 °F 15.8 °F 80% 30.22 in 10.0 mi SSE 9.2 mph - N/A   Clear
1:55 PM 23.0 °F 13.1 °F 15.8 °F 74% 30.21 in 10.0 mi SE 9.2 mph - N/A   Partly Cloudy
2:15 PM 23.0 °F 13.1 °F 15.8 °F 74% 30.20 in 10.0 mi SE 9.2 mph - N/A   Clear
2:35 PM 23.0 °F 9.6 °F 17.6 °F 80% 30.19 in 10.0 mi SSE 16.1 mph - N/A   Scattered Clouds
2:55 PM 23.0 °F 11.7 °F 17.6 °F 80% 30.18 in 10.0 mi SSE 11.5 mph 17.3 mph N/A   Scattered Clouds
3:15 PM 24.8 °F 14.0 °F 19.4 °F 80% 30.18 in 10.0 mi SSE 11.5 mph 19.6 mph N/A   Scattered Clouds
3:35 PM 24.8 °F 12.9 °F 19.4 °F 80% 30.18 in 10.0 mi SSE 13.8 mph 19.6 mph N/A   Scattered Clouds
3:55 PM 24.8 °F 12.9 °F 19.4 °F 80% 30.18 in 10.0 mi South 13.8 mph - N/A   Partly Cloudy
4:15 PM 24.8 °F 12.9 °F 19.4 °F 80% 30.19 in 10.0 mi South 13.8 mph - N/A   Scattered Clouds
4:35 PM 24.8 °F 14.0 °F 19.4 °F 80% 30.19 in 10.0 mi South 11.5 mph - N/A   Overcast
4:55 PM 24.8 °F 14.6 °F 19.4 °F 80% 30.18 in 10.0 mi SSE 10.4 mph - N/A   Mostly Cloudy
5:15 PM 24.8 °F 16.1 °F 19.4 °F 80% 30.19 in 10.0 mi SSE 8.1 mph - N/A   Partly Cloudy
5:35 PM 24.8 °F 16.1 °F 17.6 °F 74% 30.19 in 10.0 mi South 8.1 mph - N/A   Partly Cloudy
5:55 PM 23.0 °F 13.9 °F 19.4 °F 86% 30.18 in 10.0 mi South 8.1 mph - N/A   Mostly Cloudy
7:35 PM 23.0 °F 14.7 °F 19.4 °F 86% 30.17 in 10.0 mi SSE 6.9 mph - N/A   Overcast
7:55 PM 23.0 °F 15.8 °F 19.4 °F 86% 30.17 in 10.0 mi SSE 5.8 mph - N/A   Overcast
8:15 PM 24.8 °F 14.6 °F 19.4 °F 80% 30.17 in 10.0 mi South 10.4 mph - N/A   Overcast
8:35 PM 24.8 °F 14.6 °F 19.4 °F 80% 30.16 in 10.0 mi SSE 10.4 mph - N/A   Overcast
8:55 PM 24.8 °F 14.6 °F 19.4 °F 80% 30.17 in 10.0 mi South 10.4 mph - N/A   Overcast
9:15 PM 24.8 °F 14.6 °F 19.4 °F 80% 30.16 in 10.0 mi South 10.4 mph - N/A   Overcast
9:35 PM 24.8 °F 14.0 °F 19.4 °F 80% 30.16 in 10.0 mi South 11.5 mph - N/A   Overcast
9:55 PM 24.8 °F 14.0 °F 19.4 °F 80% 30.15 in 10.0 mi South 11.5 mph - N/A   Overcast
10:15 PM 24.8 °F 14.6 °F 21.2 °F 86% 30.15 in 10.0 mi South 10.4 mph - N/A   Overcast
10:35 PM 24.8 °F 14.6 °F 21.2 °F 86% 30.15 in 10.0 mi SSW 10.4 mph - N/A   Overcast
10:55 PM 24.8 °F 14.6 °F 21.2 °F 86% 30.15 in 10.0 mi South 10.4 mph - N/A   Overcast
11:15 PM 24.8 °F 16.1 °F 23.0 °F 93% 30.16 in 9.0 mi SSW 8.1 mph - N/A   Overcast
11:35 PM 24.8 °F 16.1 °F 23.0 °F 93% 30.15 in 7.0 mi SSW 8.1 mph - N/A   Overcast
11:55 PM 24.8 °F 14.6 °F 23.0 °F 93% 30.15 in 6.0 mi SSW 10.4 mph - N/A   Overcast